Location: Tr�vern
(48.0333°N, 4.6000°W)
Time: 03:00:40
(UTC+00:00)

Spot 1 - Pass Details

Date: 14 July 2020
Orbit: 575 x 777 km, 98.7° (Epoch: 04 August)

Event Time Altitude Azimuth Distance (km) Brightness Sun altitude
Exits shadow 01:48:09 32° 185° (S) 1,212 5.0 -17.8°
Maximum altitude 01:50:18 66° 257° (WSW) 775 4.3 -17.7°
Drops below altitude 10° 01:54:56 10° 340° (NNW) 2,126 7.5 -17.4°
Sets 01:57:08 0° 343° (NNW) 3,013 8.4 -17.3°
